Regional Weather Roundup
Issued by NWS Sioux Falls, SD

Home | Current Version | Previous Version | Text Only | Print | Product List | Glossary On
Versions: 1 2 3 4 5 6 7 8 9 10 11 12 13 14 15 16 17 18 19 20 21 22 23 24 25 26 27 28 29 30 31 32 33 34 35 36 37 38 39 40 41 42 43 44 45 46 47 48 49 50
000
ASUS43 KFSD 210002
RWRFSD

WEATHER ROUNDUP FOR SE SOUTH DAKOTA/SW MINNESOTA/NW IOWA
NATIONAL WEATHER SERVICE SIOUX FALLS SD
600 PM CST MON FEB 20 2017

NOTE: "FAIR" INDICATES FEW OR NO CLOUDS BELOW 12,000 FEET WITH NO
SIGNIFICANT WEATHER AND OR OBSTRUCTIONS TO VISIBILITY.


SDZ038>040-050-052>070-210100-
SOUTHEAST SOUTH DAKOTA

CITY           SKY/WX    TMP DP  RH WIND       PRES   REMARKS
BROOKINGS      CLEAR     46  41  82 W15       29.77R
CHAMBERLAIN    CLEAR     56  34  44 NW5       29.84R
6HR MIN TEMP:  47; 6HR MAX TEMP:  61;

HURON          CLEAR     50  42  74 NW10      29.81R
6HR MIN TEMP:  46; 6HR MAX TEMP:  57;

MADISON        FAIR      46  46 100 NW10      29.79R
MITCHELL       CLEAR     54  40  59 NW12      29.83R
6HR MIN TEMP:  48; 6HR MAX TEMP:  58;

SIOUX FALLS    PTCLDY    50  43  77 NW13      29.80R
6HR MIN TEMP:  50; 6HR MAX TEMP:  57; 6HR PCP: TRACE;

WINNER         FAIR      57  28  33 NW8       29.85R
YANKTON        CLEAR     54  41  62 W10       29.83R
$$

MNZ071-072-080-081-089-090-097-098-210100-
SOUTHWEST MINNESOTA

CITY           SKY/WX    TMP DP  RH WIND       PRES   REMARKS
FAIRMONT       CLOUDY    53  48  83 W26G32    29.73R
JACKSON        CLOUDY    46  43  87 W12       29.75R
LUVERNE        CLEAR     46  41  81 NW12      29.79R
MARSHALL       CLEAR     48  43  82 NW18      29.72R
6HR MIN TEMP:  48; 6HR MAX TEMP:  57; 6HR PCP: TRACE;

MONTEVIDEO     MOCLDY    43  43 100 N17       29.72R
PIPESTONE      CLEAR     48  39  71 NW15      29.77R
REDWOOD FALLS  CLOUDY    50  46  86 W22G30    29.68R
TRACY          CLOUDY    49  44  85 W13G20    29.72R
WINDOM         CLOUDY    48  46  93 W15       29.72R
WORTHINGTON    MOCLDY    48  44  86 W15       29.77R
$$

IAZ001>003-012>014-020>022-031-032-NEZ013-014-SDZ071-210100-
NORTHWEST IOWA

CITY           SKY/WX    TMP DP  RH WIND       PRES   REMARKS
CHEROKEE       CLOUDY    49  46  90 W6        29.80R
DENISON        CLOUDY    54  46  76 W10G16    29.82R
ESTHERVILLE    CLOUDY    49  47  93 W18G35    29.75R
LE MARS        PTCLDY    52  45  76 NW7       29.83R
SHELDON        PTCLDY    50  50 100 W16       29.78R
SIOUX CITY     CLEAR     54  45  71 NW6       29.83R
6HR MIN TEMP:  54; 6HR MAX TEMP:  62; 6HR PCP: TRACE;

SPENCER        CLOUDY    49  46  90 W12       29.77R
6HR MIN TEMP:  49; 6HR MAX TEMP:  57; 6HR PCP:  0.06;

STORM LAKE     CLOUDY    48  46  93 W15       29.81R
$$

ABBREVIATIONS USED IN REMARKS
   TC - TEMPERATURE IN CELSIUS
  WCI - WIND CHILL INDEX
   HX - HEAT INDEX
  VSB - VISIBILITY




USA.gov is the U.S. government's official web portal to all federal, state and local government web resources and services.